Погода в Новом Афоне

Абхазия     43°05′06″N   40°48′57″E
темп.,
°C
ветер,
м/с
пор.,
м/с
влажн.,
%
обл.,
%
осадки,
мм/ч
давл.,
гПа
погр.,
м
19 июня, сб
сб1900:00+21вюв22792 0.0 1014242
03:00+21вюв22803 0.0 1013210
06:00+21вюв2280100 0.0 1012174
09:00+21ю1181100 0.0 1012156
12:00+21зюз2278100 0.0 1011220
15:00+22з667653 0.0 1010305
18:00+22з33810 0.0 1009197
21:00+22сз01869 0.0 101111
20 июня, вс
вс2000:00+21в3385100 0.2 1010117
03:00+21в22850 0.2 1011165
06:00+21вюв228336 0.0 1011160
09:00+21ю32840 0.1 1011178
12:00+21юз118626 0.0 1011179
15:00+22з66810 0.0 1010245
18:00+22з45850 0.0 1010196
21:00+22вюв22851 0.0 101227
21 июня, пн
пн2100:00+22юв22870 0.0 101190
03:00+21ююв11860 0.0 1010109
06:00+21ссв11850 0.0 101096
09:00+21з11851 0.0 1010118
12:00+22зсз44800 0.0 1009183
15:00+22з78850 0.0 1009222
18:00+23з46860 0.0 1009235
21:00+22вюв11873 0.0 101114
22 июня, вт
вт2200:00+22з11880 0.0 101111
03:00+22всв00871 0.1 101116
06:00+22вюв22873 0.0 1011122
09:00+21ююз228813 0.0 1012153
12:00+21з228715 0.0 1011184
15:00+22з56840 0.0 1011287
18:00+22з55870 0.0 1010210
21:00+22юз11880 0.0 101131
23 июня, ср
ср2300:00+22с01880 0.0 101233
03:00+22вюв22885 0.0 1013172
06:00+22вюв338885 0.0 1013231
09:00+22юз118878 0.1 1013144
12:00+22зюз22850 0.0 1013180
15:00+23з33800 0.0 1013254
18:00+23з34792 0.0 1014289
21:00+23в228276 0.0 101619